STARLINK-2587 (48399 NORAD) Tracking and Keplerian Element Data

This shows tracking and keplerian element data for the satellite.

Feedback or suggestion? Click here.




ElementValue
Catalog48399
NameSTARLINK-2587
Epoch Orbit366
Epoch Day214.91667824
Epoch Year2021
RAAN322.4276
Inclination53.0513
Eccentricity0.0001224
Argument of Perigee69.6551
Mean Anonmoly311.7936
Mean Motion15.10452576
Decay Rate-0.0113866
L11 48399U 21038AY 21214.91667824 -.01138660 00000-0 -74288-1 0 9997
L22 48399 53.0513 322.4276 0001224 69.6551 311.7936 15.10452576 3660

Live tracking and technical data element details for STARLINK-2587 (NORAD 48399). STARLINK-2587 can be tracked NOW for your location showing map with azimuth and elevation plus other details from your city location.

Track the satellite on the map from your city or location and see movement details for azimuth, elevation, latitude, longitude, range, height, and movement on the map or in text.







IsCatalogInMostPopularTable: catalog: 48399, numindb: 33
Update: records affected: 1



GetName: 48399 STARLINK-2587

Hit Count: updated at: Tue, 03 Aug 2021 21:39:58 GMT